2019-087B (44839 NORAD) Tracking and Keplerian Element Data

This shows tracking and keplerian element data for the satellite.

Feedback or suggestion? Click here.




ElementValue
Catalog44839
Name2019-087B
Epoch Orbit630
Epoch Day17.81392063
Epoch Year2020
RAAN176.4963
Inclination97.3761
Eccentricity0.0014574
Argument of Perigee117.0288
Mean Anonmoly348.7693
Mean Motion15.20982687
Decay Rate8.31E-06
L11 44839U 19087B 20017.81392063 .00000831 00000-0 40513-4 0 9994
L22 44839 97.3761 176.4963 0014574 117.0288 348.7693 15.20982687 6304

Live tracking and technical data element details for 2019-087B (NORAD 44839). 2019-087B can be tracked NOW for your location showing map with azimuth and elevation plus other details from your city location.

Track the satellite on the map from your city or location and see movement details for azimuth, elevation, latitude, longitude, range, height, and movement on the map or in text.







IsCatalogInMostPopularTable: catalog: 44839, numindb: 11
Update: records affected: 1



GetName: 44839 2019-087B

Hit Count: updated at: Sat, 18 Jan 2020 16:58:48 GMT